User: anonymous   Login
Location: Plymouth
(43.7570°N, 71.6890°W)
Time: 09:18:04
(UTC-04:00)
Language:

Meteor 1-28 Rocket - Orbit

View from above orbital plane
View from above orbital plane
View from above satellite
View from above satellite

Ground track
Ground track

The orbit data is extracted from the following two-line orbital elements,

1 10114U 77057B   15242.83735325  .00001035  00000-0  57782-4 0  9995
2 10114 097.2225 087.1650 0016257 091.6073 268.7022 15.15507690 84097
Epoch (UTC): 30 August 2015 20:05:47
Eccentricity: 0.0016257
inclination: 97.2225°
perigee height: 508 km
apogee height: 530 km
right ascension of ascending node: 87.1650°
argument of perigee: 91.6073°
revolutions per day: 15.15507690
mean anomaly at epoch: 268.7022°
orbit number at epoch: 8409

The dashed part of the orbit path shows where the satellite is in the earth's shadow,  

DLR